Hourly Data Report for September 09, 2017

All times are specified in Local Standard Time (LST). Add 1 hour to adjust for Daylight Saving Time where and when it is observed.

CHARLOTTETOWN A
PRINCE EDWARD ISLAND

46°17'21.000" N
63°07'09.000" W
48.50 m
8300301
71706
YYG

Download Data

Hourly Data (September 2017)
Hourly Data Report for September 9, 2017
Temp Definition
°C
Dew Point Temp Definition
°C
Rel Hum Definition
%
Wind Dir Definition
10's deg

Wind Spd Definition
km/h
Visibility Definition
km
Stn Press Definition
kPa
Hmdx Definition


Wind Chill Definition


Weather Definition


TIME
00:00 Legend Double Dagger 14.2 12.3 88 22 12 24.1 101.33     LegendNANA
01:00 Legend Double Dagger 13.4 11.9 91 36 1 24.1 101.34     LegendNANA
02:00 Legend Double Dagger 12.9 12.2 95 19 8 24.1 101.36     Mainly Clear
03:00 Legend Double Dagger 13.1 12.4 95 20 9 24.1 101.36     LegendNANA
04:00 Legend Double Dagger 13.2 12.5 96 19 4 24.1 101.35     LegendNANA
05:00 Legend Double Dagger 12.5 11.9 96 21 7 24.1 101.37     Mainly Clear
06:00 Legend Double Dagger 11.3 10.8 97 26 4 19.3 101.43     LegendNANA
07:00 Legend Double Dagger 13.5 13.1 97 26 4 24.1 101.49     LegendNANA
08:00 Legend Double Dagger 14.5 14.0 97 23 3 24.1 101.52     Mainly Clear
09:00 Legend Double Dagger 16.5 14.9 90 34 5 24.1 101.55     LegendNANA
10:00 Legend Double Dagger 18.4 13.1 71 17 4 24.1 101.56     LegendNANA
11:00 Legend Double Dagger 19.4 13.6 69 12 8 24.1 101.56     Mainly Clear
12:00 Legend Double Dagger 19.5 13.7 69 10 3 24.1 101.54     LegendNANA
13:00 Legend Double Dagger 18.3 13.9 75 1 14 24.1 101.54     LegendNANA
14:00 Legend Double Dagger 17.7 14.3 80 3 20 24.1 101.54     Mostly Cloudy
15:00 Legend Double Dagger 17.0 12.8 76 9 13 24.1 101.56     LegendNANA
16:00 Legend Double Dagger 17.0 12.8 76 1 10 24.1 101.55     LegendNANA
17:00 Legend Double Dagger 17.0 13.8 81 36 9 24.1 101.56     Mostly Cloudy
18:00 Legend Double Dagger 16.2 13.8 86 1 13 24.1 101.56     LegendNANA
19:00 Legend Double Dagger 14.3 12.9 92 4 7 24.1 101.60     LegendNANA
20:00 Legend Double Dagger 13.7 12.9 95 36 5 24.1 101.63     Mainly Clear
21:00 Legend Double Dagger 13.6 13.0 96 35 8 24.1 101.65     LegendNANA
22:00 Legend Double Dagger 13.6 13.1 97 1 8 24.1 101.68     LegendNANA
23:00 Legend Double Dagger 14.8 14.3 97 2 14 24.1 101.67     Mostly Cloudy

Notes on Data Quality.

Legend

  • E = Estimated
  • M = Missing
  • NA = Not Available
  • ‡ = Partner data that is not subject to review by the National Climate Archives
Date modified: